CAPE
0 0 0 0 0 0 0 0 0 0 0 0 0 0 0 0 0 0 0 0 0 0 0 0 0 0 0 0 0 0 0 0 0 0 1 1 3 5 10 12 16 15 21 20
0 0 0 0 0 0 0 0 0 0 0 0 0 0 0 0 0 0 0 0 0 0 0 0 0 0 0 0 0 0 0 0 0 1 3 6 5 5 12 21 28 26 22 29
0 0 0 0 0 0 0 0 0 0 0 0 1 0 0 0 0 0 0 0 0 0 0 0 0 0 0 0 0 0 0 0 0 4 2 7 7 2 5 16 21 22 13 17
0 0 0 0 0 0 0 0 0 0 0 7 1 35 0 0 0 0 0 0 0 0 0 0 0 0 0 0 0 0 0 0 0 6 7 12 9 20 17 15 21 28 14 7
0 0 0 0 0 0 0 0 0 0 12 12 4 32 1 0 0 0 0 0 0 0 0 0 0 0 0 0 0 0 0 0 0 1 13 14 15 16 21 21 10 26 19 14
0 0 0 0 0 0 0 0 1 4 9 20 0 6 14 0 0 0 0 0 0 0 0 0 0 0 0 0 3 2 0 0 0 3 11 25 25 29 20 13 16 17 25 28
0 0 0 0 0 0 0 0 4 10 19 9 0 3 3 0 0 0 0 0 0 0 0 1 2 1 3 8 8 3 0 0 0 2 7 17 6 24 12 24 15 19 19 22
0 0 0 0 0 0 0 0 2 0 1 4 0 0 10 0 0 0 0 0 0 0 0 1 3 5 8 9 10 7 3 2 1 4 11 17 14 24 22 17 27 35 17 20
3 0 0 0 0 0 0 0 0 3 0 9 0 0 2 0 0 0 0 0 0 0 0 1 4 10 8 9 13 11 9 4 2 10 17 19 29 18 13 12 10 47 39 17
13 0 0 0 0 0 0 0 1 1 0 0 1 0 5 0 27 0 0 0 0 0 0 6 15 14 15 21 18 9 12 7 5 10 16 22 26 17 21 28 29 29 23 29
0 1 0 0 0 18 0 0 4 9 11 4 4 9 75 72 116 5 0 2 1 0 1 17 18 16 15 21 16 10 11 6 7 9 19 29 26 17 10 29 30 25 27 16
0 2 0 0 0 0 0 6 23 5 0 5 6 7 3 2 1 0 0 2 0 0 5 9 15 17 16 17 11 9 10 6 10 9 25 26 30 17 19 32 31 16 28 12
0 0 0 0 0 0 0 0 0 0 2 6 6 19 0 0 0 0 13 0 2 4 3 11 19 26 22 16 7 8 6 6 9 7 22 16 9 11 15 24 21 25 25 16
0 0 0 0 0 0 0 0 0 0 6 0 1 8 58 128 44 15 0 3 6 7 5 14 19 28 20 13 5 5 2 7 8 11 18 11 6 19 23 32 30 29 22 31
0 2 0 0 0 0 0 0 0 0 0 0 0 0 0 0 3 0 2 5 3 2 4 6 13 24 14 1 3 1 1 5 8 12 15 13 13 15 18 28 38 36 31 35
0 0 0 0 0 0 0 0 0 0 0 0 0 0 0 0 0 0 6 3 1 2 2 4 9 5 2 1 0 0 2 3 13 12 11 15 18 11 12 19 37 36 36 36
0 0 0 0 0 0 0 0 0 0 0 0 0 134 0 0 0 1 2 4 0 0 1 3 0 0 1 0 0 0 3 5 9 12 7 14 15 20 17 14 24 27 39 37
0 0 0 0 0 0 0 0 0 0 0 0 0 0 0 0 0 0 1 0 0 0 0 0 0 0 0 0 0 0 2 5 10 8 6 6 8 13 21 14 20 28 38 51
0 0 0 0 0 0 0 0 0 0 0 0 0 0 0 0 0 4 0 0 0 0 0 0 0 0 0 0 0 0 0 6 8 12 14 15 14 14 24 19 13 7 26 30
0 0 0 0 0 0 0 0 0 0 0 0 0 0 0 0 0 3 0 0 0 0 0 0 0 0 0 0 0 0 0 4 10 11 10 12 18 17 15 10 10 11 20 24
0 1 5 6 2 0 0 0 0 0 0 0 0 0 0 0 0 0 0 0 0 0 0 0 0 0 0 0 0 0 0 3 10 13 9 8 8 9 7 6 14 13 13 18
0 0 1 3 2 0 0 0 0 0 0 0 0 0 0 0 0 0 0 0 0 0 0 0 0 0 0 0 0 0 0 3 7 15 14 6 9 11 10 8 9 15 20 28
0 0 0 0 0 0 0 0 0 0 0 0 0 0 0 0 0 0 0 0 0 0 0 0 0 0 0 0 0 0 1 3 5 10 15 8 1 6 5 14 17 35 22 40
0 0 0 0 0 0 0 0 0 0 0 0 0 0 0 0 0 0 0 0 0 0 0 0 0 0 0 0 0 1 3 5 4 3 5 10 4 6 7 16 20 31 32 34
0 0 0 0 0 0 0 0 0 0 0 0 0 0 0 0 0 0 0 0 0 0 0 0 0 0 0 0 0 2 5 5 3 3 2 9 9 5 9 7 16 20 20 22
0 0 0 0 0 0 0 0 0 0 0 0 0 0 0 0 0 0 0 0 0 0 0 0 0 0 0 0 0 2 7 6 5 3 4 8 10 5 6 11 8 5 3 9
CIN
0 0 0 0 0 0 0 0 0 0 0 0 0 0 0 0 0 0 0 0 0 0 0 0 0 0 0 0 0 0 0 0 0 0 0 0 0 0 0 0 0 0 0 0
0 0 0 0 0 0 0 0 0 0 0 0 0 0 0 0 0 0 0 0 0 0 0 0 0 0 0 0 0 0 0 0 0 0 0 0 0 0 0 0 0 0 0 0
0 0 0 0 0 0 0 0 0 0 0 0 0 0 0 0 0 0 0 0 0 0 0 0 0 0 0 0 0 0 0 0 0 0 0 0 0 0 0 0 0 0 0 0
0 0 0 0 0 0 0 0 0 0 0 0 0 0 0 0 0 0 0 0 0 0 0 0 0 0 0 0 0 0 0 0 0 0 0 0 0 0 0 0 0 0 0 0
0 0 0 0 0 0 0 0 0 0 0 0 0 0 0 0 0 0 0 0 0 0 0 0 0 0 0 0 0 0 0 0 0 0 0 0 0 0 0 0 0 0 -1 0
0 0 0 0 0 0 0 0 0 0 0 0 0 0 -1 0 0 0 0 0 0 0 0 0 0 0 0 0 0 0 0 0 0 0 0 0 0 0 0 0 0 0 0 0
0 0 0 0 0 0 0 0 0 0 0 0 0 0 -1 0 0 0 0 0 0 0 0 0 0 0 0 0 0 0 0 0 0 0 0 0 -4 0 0 0 0 0 0 0
0 0 0 0 0 0 0 0 0 0 0 0 0 0 0 0 0 0 0 0 0 0 0 0 0 0 0 0 0 0 0 0 0 0 0 0 0 0 0 0 0 0 0 0
0 0 0 0 0 0 0 0 0 0 0 0 0 0 0 0 0 0 0 0 0 0 0 0 0 0 0 0 0 0 0 0 0 0 0 0 0 0 0 0 0 0 0 0
0 0 0 0 0 0 0 0 0 0 0 0 0 0 0 0 0 0 0 0 0 0 0 0 0 0 0 0 0 0 0 0 0 0 0 0 0 0 0 0 0 0 0 0
0 0 0 0 0 0 0 0 0 0 0 0 0 -2 0 0 0 -1 0 0 0 0 0 0 0 0 0 0 0 0 0 0 0 0 0 0 0 0 0 0 0 0 0 0
0 0 0 0 0 0 0 0 0 0 0 0 0 0 -1 -1 -1 0 0 0 0 0 0 0 0 0 0 0 0 0 0 0 0 0 0 0 0 0 0 0 0 0 0 -1
0 0 0 0 0 0 0 0 0 0 0 0 0 -1 0 0 0 0 -10 0 -3 0 0 0 0 0 0 0 0 0 0 0 0 0 0 0 0 0 0 0 0 0 0 -1
0 0 0 0 0 0 0 0 0 0 0 0 0 0 0 -1 -10 -18 0 0 0 0 0 0 0 0 0 0 0 0 0 0 0 0 0 0 0 0 0 0 0 0 0 0
0 0 0 0 0 0 0 0 0 0 0 0 0 0 0 -2 -6 0 0 0 0 0 0 0 0 0 0 0 0 0 0 0 0 0 0 0 0 0 0 0 0 0 0 0
0 0 0 0 0 0 0 0 0 0 0 0 0 0 0 0 0 0 0 0 0 0 0 0 0 0 0 0 0 0 0 0 0 0 0 0 0 0 0 0 0 0 0 0
0 0 0 0 0 0 0 0 0 0 0 0 0 -1 0 0 0 0 0 0 0 0 0 0 0 0 0 0 0 0 0 0 0 0 0 0 0 0 0 0 0 0 0 0
0 0 0 0 0 0 0 0 0 0 0 0 0 0 0 0 0 0 0 0 0 0 0 0 0 0 0 0 0 0 0 0 0 0 0 0 0 0 0 0 0 0 0 0
0 0 0 0 0 0 0 0 0 0 0 0 0 0 0 0 0 -2 0 0 0 0 0 0 0 0 0 0 0 0 0 0 0 0 0 0 0 0 0 0 0 0 0 0
0 0 0 0 0 0 0 0 0 0 0 0 0 0 0 0 0 0 0 0 0 0 0 0 0 0 0 0 0 0 0 0 0 0 0 0 0 0 0 0 0 0 0 0
0 0 0 0 0 0 0 0 0 0 0 0 0 0 0 0 0 0 0 0 0 0 0 0 0 0 0 0 0 0 0 0 0 0 0 0 0 -1 0 0 0 0 0 0
0 0 0 0 0 0 0 0 0 0 0 0 0 0 0 0 0 0 0 0 0 0 0 0 0 0 0 0 0 0 0 0 0 0 0 0 0 0 0 0 0 0 0 0
0 0 0 0 0 0 0 0 0 0 0 0 0 0 0 0 0 0 0 0 0 0 0 0 0 0 0 0 0 0 0 0 0 0 0 0 0 0 0 0 0 0 0 0
0 0 0 0 0 0 0 0 0 0 0 0 0 0 0 0 0 0 0 0 0 0 0 0 0 0 0 0 0 0 0 0 0 0 0 0 0 0 0 0 0 0 0 0
0 0 0 0 0 0 0 0 0 0 0 0 0 0 0 0 0 0 0 0 0 0 0 0 0 0 0 0 0 0 0 0 0 0 0 0 0 0 0 0 0 0 0 0
0 0 0 0 0 0 0 0 0 0 0 0 0 0 0 0 0 0 0 0 0 0 0 0 0 0 0 0 0 0 0 0 0 0 0 0 0 0 0 0 0 -2 -3 -1
Wind_Speed
12 12 13 13 9 7 5 7 7 8 6 6 9 10 8 8 10 11 12 12 13 13 13 15 15 16 17 18 19 19 19 19 15 13 14 15 15 15 15 13 17 16 15 14
12 16 9 10 8 7 7 7 9 8 5 4 6 9 8 8 10 10 11 12 13 13 14 15 16 16 17 17 18 19 19 19 16 14 12 12 14 13 13 15 17 17 18 16
16 8 3 4 9 5 8 9 2 2 7 6 3 8 4 5 7 8 10 10 11 13 14 14 16 16 16 17 18 19 19 19 17 19 13 12 11 12 11 12 13 17 18 17
12 9 6 5 11 9 4 7 0 9 9 5 3 2 3 2 4 9 11 12 12 13 13 13 14 16 17 16 17 18 18 19 16 18 16 19 14 13 13 12 12 13 18 17
7 10 10 8 6 11 7 3 5 9 5 6 5 4 3 2 5 10 11 12 12 12 12 13 13 14 15 16 17 17 19 19 19 18 17 15 16 14 12 12 18 16 14 18
10 4 10 6 4 6 3 8 9 4 3 1 4 4 4 6 7 9 10 12 12 13 13 13 13 14 15 16 16 17 20 21 20 18 18 17 20 18 15 16 13 12 11 11
11 12 6 8 1 11 7 5 2 2 1 3 3 6 3 3 8 10 11 13 13 12 13 13 15 15 15 16 17 17 20 21 20 19 18 17 16 19 17 16 14 15 12 11
3 5 9 11 6 5 7 5 2 3 2 4 1 4 5 3 6 6 8 10 11 12 13 15 15 15 16 16 17 19 20 21 21 19 18 15 15 11 12 12 13 13 11 12
5 4 1 5 10 5 3 5 2 3 2 4 0 1 5 0 5 8 9 10 11 12 14 15 15 14 16 16 17 18 19 20 19 19 16 16 13 16 15 17 15 12 13 12
3 6 3 1 3 8 5 4 2 2 3 3 2 3 2 2 6 10 11 10 11 12 14 14 14 15 14 14 15 16 17 18 18 17 16 14 12 15 15 13 15 16 16 14
5 0 5 4 2 2 1 2 5 3 3 3 5 2 2 3 3 6 10 9 10 12 13 13 14 14 14 14 14 15 17 18 17 17 16 16 15 16 16 13 13 14 15 17
3 2 4 4 2 2 1 3 1 3 4 1 3 2 3 5 6 8 10 10 11 11 12 13 14 14 14 14 14 16 17 16 16 16 16 15 15 16 14 13 13 15 14 14
7 3 5 5 5 6 5 3 3 2 1 5 3 1 4 4 8 9 8 10 9 10 12 12 13 13 14 14 14 15 17 16 16 16 16 15 15 16 14 15 15 16 14 14
5 2 3 2 4 7 4 8 8 4 3 5 7 7 4 3 5 8 9 10 12 12 12 13 13 14 13 13 14 15 16 16 16 16 16 15 16 16 14 14 14 16 16 14
4 4 5 1 1 4 7 7 10 8 4 6 2 5 7 7 8 9 10 10 11 13 13 14 15 14 13 14 15 15 15 15 16 16 16 14 14 16 14 13 13 13 15 13
6 5 4 4 4 6 8 10 11 12 7 9 11 11 9 10 8 10 10 11 12 13 14 15 15 15 13 15 15 15 15 14 15 15 15 16 15 15 16 16 14 14 15 14
7 5 5 3 4 6 9 13 13 9 10 7 7 4 5 8 8 9 11 10 11 13 14 15 14 13 13 14 14 14 14 13 14 14 14 16 16 16 16 16 14 15 16 15
6 7 3 2 3 5 4 8 7 9 9 13 10 9 7 7 7 9 6 8 10 12 13 11 10 12 13 13 13 13 12 13 14 14 14 13 16 16 16 16 16 16 14 14
6 6 3 4 6 5 10 8 7 10 6 10 9 5 4 2 7 3 5 4 7 8 7 8 9 11 12 12 13 14 12 13 13 14 15 15 16 17 17 16 15 14 13 13
6 6 4 3 5 5 5 11 6 4 7 11 7 5 4 2 6 7 4 4 5 4 7 8 10 10 10 12 13 13 12 12 13 14 14 14 15 16 15 14 14 14 13 13
10 7 10 7 5 7 5 12 9 5 3 10 8 6 3 5 5 6 2 1 3 5 7 9 8 8 9 11 13 13 12 13 13 13 13 13 14 14 14 13 11 13 13 13
13 9 6 7 7 9 13 14 8 2 7 7 7 5 5 4 1 1 2 1 3 5 6 7 7 8 8 10 11 13 13 14 13 14 13 13 13 11 12 14 12 12 12 13
9 8 5 9 5 1 20 4 15 6 7 7 6 5 5 4 3 3 3 1 3 5 6 6 7 7 8 9 10 12 13 14 15 14 14 12 11 11 11 12 12 11 11 11
10 9 5 3 6 12 16 16 8 10 9 5 5 4 7 4 4 4 4 2 2 4 6 6 6 7 8 9 9 10 12 14 14 15 13 11 12 12 10 8 9 10 11 11
3 12 11 10 11 2 13 18 16 12 9 7 7 7 8 6 6 5 4 2 1 2 2 4 6 6 8 8 9 10 11 13 13 13 12 12 10 12 11 9 9 9 10 11
10 11 9 7 7 9 3 16 19 16 13 11 10 9 8 7 7 5 4 2 1 1 1 3 5 6 7 8 8 9 10 11 11 11 10 10 10 10 10 9 9 7 8 10
Wind_Direction
56 75 57 50 51 69 85 82 90 102 70 65 91 96 76 51 34 28 23 20 19 17 16 14 11 9 1 5 2 359 358 356 351 352 351 349 350 347 345 352 347 335 339 329
94 64 60 59 64 86 93 97 90 102 86 128 132 103 88 54 40 28 14 15 10 5 6 8 5 5 2 1 359 355 356 352 353 351 346 349 343 344 337 349 340 350 334 333
69 49 50 60 54 112 73 25 4 30 124 110 165 139 114 74 46 30 27 13 10 7 357 0 359 2 357 0 356 352 351 349 352 349 342 342 342 342 342 343 339 340 339 330
67 58 64 75 58 353 89 5 221 149 213 71 240 67 90 26 33 32 22 11 6 1 359 358 354 356 356 358 355 352 350 346 349 346 342 344 344 344 339 336 336 336 336 336
82 52 37 56 31 9 57 359 124 154 121 140 64 250 72 212 19 11 10 2 360 358 355 352 354 350 352 354 355 351 347 348 349 345 341 341 344 341 339 336 338 335 334 339
88 79 41 38 41 1 143 121 119 134 151 141 307 319 152 18 340 339 348 344 351 349 344 347 350 346 350 352 350 348 345 345 348 345 343 345 344 339 339 337 337 337 337 333
99 64 98 26 192 60 174 201 155 180 147 12 285 264 31 338 336 331 330 338 340 341 343 335 344 345 342 346 348 346 346 345 347 346 344 352 341 331 343 335 332 338 336 337
84 121 13 6 25 27 50 34 3 88 348 39 208 344 67 283 329 330 323 340 339 345 344 343 344 343 342 343 345 345 344 344 346 346 342 348 343 337 343 331 329 331 338 332
129 109 116 37 39 300 54 63 40 108 100 243 49 212 230 253 340 358 355 345 339 339 340 344 344 344 343 344 343 344 344 345 347 346 344 351 337 342 344 336 336 329 338 333
154 120 200 70 269 48 60 104 185 77 342 329 270 253 64 341 317 328 325 321 320 326 331 335 340 341 341 339 340 342 343 345 345 346 347 343 342 342 339 334 334 336 336 343
152 41 153 230 57 271 209 93 64 92 331 334 311 75 131 234 268 288 292 291 292 303 314 324 332 338 339 340 342 341 343 344 345 345 346 347 350 357 337 336 338 338 332 339
82 113 146 113 63 323 78 144 269 270 156 94 303 285 162 233 279 284 280 283 287 302 313 326 327 335 340 342 343 344 342 344 344 343 343 359 351 340 338 338 336 340 334 342
166 155 142 168 185 198 237 181 122 115 20 193 270 56 187 260 284 282 284 294 299 313 325 324 329 336 339 343 342 343 343 343 344 343 342 6 346 344 340 339 341 341 342 341
161 182 264 285 80 130 171 193 185 239 217 152 236 295 281 283 297 310 309 322 328 329 330 329 334 338 339 342 343 343 344 344 346 342 348 0 346 339 346 342 340 344 346 342
242 182 190 183 206 212 221 206 197 210 219 232 86 235 284 278 276 293 317 308 327 332 335 336 336 336 337 343 344 344 345 346 346 346 355 345 349 343 346 342 340 340 346 345
198 165 194 225 211 229 240 228 219 221 226 253 265 274 231 265 284 284 315 331 329 336 340 337 337 339 342 345 344 344 345 349 345 350 360 338 346 345 351 346 342 346 350 349
184 176 186 236 189 300 267 228 216 201 200 221 242 218 281 293 304 318 322 322 328 335 335 338 340 342 344 346 345 346 344 347 349 353 2 338 339 345 348 348 346 349 350 350
183 192 204 259 200 240 99 149 207 230 232 213 247 270 282 288 311 307 319 329 328 339 336 341 344 342 344 346 347 342 347 352 352 1 357 337 338 344 349 353 348 349 343 345
216 194 212 234 229 319 202 206 200 207 221 211 227 241 255 310 298 128 65 10 336 343 345 343 346 344 345 350 346 343 352 357 1 356 348 346 349 349 356 353 340 343 335 349
192 238 231 209 262 249 96 146 164 185 245 185 198 212 254 281 290 39 10 359 355 3 356 350 347 345 349 352 346 343 349 5 353 352 347 349 350 351 356 344 341 341 343 347
189 202 219 219 269 280 183 152 159 224 100 176 194 217 263 265 345 360 359 47 20 7 359 346 347 352 355 349 345 347 347 1 343 344 347 354 357 356 343 343 345 339 343 349
182 185 191 203 228 256 156 149 208 130 151 172 195 220 244 261 306 128 131 45 13 350 354 356 350 356 355 349 348 347 353 346 340 343 353 10 1 348 344 347 350 351 351 350
204 211 184 209 219 141 181 178 203 185 181 192 210 195 211 200 197 168 157 115 22 353 356 356 354 348 355 357 353 349 344 339 340 344 360 8 357 350 352 348 350 352 356 358
225 204 237 179 230 215 205 216 208 206 222 197 216 220 188 193 169 161 156 133 352 0 358 356 340 352 356 357 350 348 344 345 341 347 352 356 4 352 359 350 352 354 359 357
185 167 216 239 251 228 221 219 217 215 228 234 235 213 196 178 173 166 159 145 40 7 4 347 341 346 350 351 350 354 351 347 352 341 344 360 3 358 358 359 0 1 7 352
188 199 196 213 210 201 198 214 214 226 236 229 206 183 180 182 165 161 154 140 151 97 354 328 330 336 349 347 350 355 358 358 351 337 346 4 349 354 355 357 353 360 352 354